Tracking 19293 objects as of 21-Nov-2018
HD Live streaming from Space Station
objects crossing your sky now

AMC-8 (GE-8)

Track AMC-8 (GE-8) now!
AMC-8 (GE-8) is classified as:


NORAD ID: 26639
Int'l Code: 2000-081B
Perigee: 35,782.4 km
Apogee: 35,804.7 km
Inclination: 0.0 °
Period: 1,436.1 minutes
Semi major axis: 42164 km
RCS: 25.1189 m2 (large)
Launch date: December 20, 2000
Source: SOCIETE EUROPEENNE DES SATELLITES (SES)
Launch site: FRENCH GUIANA (FRGUI)

Cable television and radio programming; 24 C-band; CONUS, Alaska, Hawaii, Caribbean
aabbcc
Your satellite tracking list
Your tracking list is empty




NASA's NSSDC Master Catalog

Two Line Element Set (TLE):
1 26639U 00081B   18324.46993851  .00000116  00000-0  00000+0 0  9995
2 26639   0.0363  78.3656 0002641 180.5581 190.6996  1.00272359 65545
Source of the keplerian elements: AFSPC